[[{"header":{"parameterUnit":"m.s-1","parameterCategory":2,"la1":30.2991,"la2":30.254,"lo1":-89.0895,"lo2":-89.0444,"dy":0.0017,"dx":0.0017,"nx":28,"ny":28,"refTime":"2023-10-17T09:00:00:Z","depth":"0","parameterNumber":2,"parameterNumberName":"U-component_of_CURRENTS"},"data":[0,0,0,0,0,0,0,0,0,0,0,0,0,0,0,0,0,0,0,0,0,0,0,0,0,0,0,0,0,0,0,0,0,0,0,0,0,0,0,0,0,0,0,0,0,0,0,0,0,0,0,0,0,0,0,0,0,0,0.2719,0.272,0,0.2793,0.2793,0.2794,0.2813,0.2813,0.2813,0.2813,0.2791,0.2791,0.279,0,0,0,0,0,0,0,0,0,0,0,0,0,0.2593,0.2595,0.2719,0.272,0.2722,0.2793,0.2793,0.2794,0.2813,0.2813,0.2813,0.2813,0.2791,0.2791,0.279,0,0,0,0,0,0,0,0,0,0,0,0,0,0.2651,0.2596,0.2719,0.2743,0.2746,0.2793,0.2793,0.2794,0.2813,0.2813,0.2813,0.2813,0.2792,0.2791,0.279,0.2786,0,0,0.2788,0.2787,0,0,0,0,0,0,0,0,0.2648,0.2655,0.2738,0.2742,0.2745,0.2798,0.2741,0.2788,0.2813,0.2783,0.2813,0.2813,0.2788,0.2787,0.2796,0.2785,0.2784,0.2787,0.2787,0.2787,0.2786,0,0,0,0,0,0,0,0.2644,0.2652,0.2743,0.274,0.2744,0.275,0.2758,0.275,0.2779,0.2785,0.2788,0.2804,0.2788,0.2797,0.2795,0.2784,0.2787,0.2787,0.2786,0.2786,0.2782,0.2782,0,0,0,0,0,0,0.2644,0.2648,0.2741,0.2746,0.2701,0.2753,0.2761,0.2777,0.2781,0.2784,0.2804,0.2804,0.2798,0.2796,0.2794,0.2816,0.2787,0.2786,0.2785,0.2781,0.2782,0.2782,0,0,0,0,0,0,0.2641,0.2652,0.2738,0.2702,0.2714,0.2756,0.2773,0.2779,0.2793,0.2797,0.2797,0.2813,0.2798,0.2796,0.28,0.2814,0.2785,0.2785,0.2781,0.2782,0.2782,0.2841,0,0,0,0,0,0,0.2637,0.265,0.266,0.2703,0.2717,0.2768,0.2774,0.278,0.2805,0.2806,0.2805,0.2803,0.2798,0.2802,0.2799,0.2812,0.2784,0.2781,0.2781,0.2782,0.2839,0.2844,0.2848,0,0,0,0,0,0.2632,0.2645,0.266,0.2671,0.2729,0.2769,0.2776,0.2802,0.2805,0.2813,0.2818,0.2803,0.2804,0.2802,0.2799,0.2812,0.278,0.2781,0.2782,0.2837,0.2843,0.2848,0,0,0,0,0,0,0.2591,0.265,0.2667,0.2696,0.2732,0.2774,0.2785,0.2804,0.2816,0.2813,0.2812,0.2811,0.2821,0.2804,0.2801,0.2811,0.2788,0.2788,0.2831,0.2836,0.2841,0.2847,0.2783,0,0,0,0,0,0.2589,0.2616,0.2669,0.2691,0.2708,0.2747,0.2766,0.2785,0.2806,0.2812,0.2816,0.2814,0.2822,0.2819,0.2819,0.2822,0.2879,0.2825,0.283,0.2834,0.2837,0.2954,0.2972,0.2785,0.2785,0.2785,0,0,0.2577,0.2616,0.2629,0.2684,0.271,0.2742,0.2756,0.2786,0.2813,0.2805,0.2828,0.2832,0.2827,0.2841,0.2842,0.2828,0.2923,0.2835,0.2839,0.2839,0.2957,0.2976,0.2993,0.2786,0.2786,0.2786,0,0,0.2569,0.2602,0.2621,0.2655,0.2706,0.2735,0.2745,0.279,0.2808,0.2832,0.2841,0.2855,0.2854,0.2867,0.2869,0.2893,0.2948,0.2889,0.2915,0.303,0.3047,0.3063,0.3195,0.3222,0.2887,0.2887,0.2887,0,0.2555,0.2588,0.2631,0.2662,0.2687,0.2732,0.2754,0.2788,0.2829,0.2854,0.284,0.2893,0.2867,0.2922,0.2915,0.2905,0.2995,0.2898,0.3041,0.3057,0.3073,0.3204,0.3233,0.289,0.2889,0.2889,0.2889,0,0.2566,0.2592,0.2604,0.2661,0.2695,0.2718,0.2776,0.2808,0.2831,0.2871,0.293,0.2932,0.2973,0.2957,0.2931,0.3025,0.3065,0.3044,0.3037,0.3096,0.3229,0.3259,0.2894,0.2893,0.2892,0.2891,0,0,0.2535,0.2598,0.2601,0.2629,0.2693,0.2727,0.2773,0.2837,0.2893,0.2932,0.3012,0.3007,0.3044,0.3049,0.3052,0.3112,0.3276,0.3116,0.3121,0.3265,0.3577,0.3558,0.3589,0.3305,0.3309,0.3313,0.3641,0,0.2527,0.2568,0.2605,0.2649,0.2677,0.2734,0.2781,0.2851,0.2911,0.3002,0.3048,0.3125,0.3078,0.3118,0.3178,0.3247,0.3352,0.3191,0.3481,0.3489,0.348,0.362,0.3442,0.3715,0.367,0.3675,0.3678,0,0.2529,0.2558,0.2587,0.2657,0.2675,0.2714,0.2814,0.2867,0.3,0.3052,0.3158,0.3229,0.3337,0.3285,0.3498,0.3414,0.3502,0.3554,0.3568,0.3545,0.3524,0.3639,0.377,0.3594,0.3724,0.372,0.3717,0,0.2501,0.2551,0.2571,0.2594,0.2679,0.2712,0.2765,0.2882,0.2947,0.3122,0.3207,0.3365,0.3458,0.3599,0.3706,0.3637,0.3953,0.3879,0.3968,0.397,0.3867,0.385,0.3868,0.4065,0.4064,0.4063,0.4062,0,0.2493,0.2523,0.2562,0.2585,0.2626,0.27,0.2777,0.2859,0.3,0.3123,0.325,0.3384,0.354,0.3731,0.3813,0.401,0.4074,0.402,0.4064,0.3882,0.3864,0.374,0.3672,0.4076,0.4073,0.4071,0.4068,0,0.2508,0.251,0.2556,0.2614,0.2618,0.2672,0.2765,0.2874,0.2978,0.3155,0.3231,0.3445,0.3699,0.3882,0.4124,0.415,0.4217,0.4384,0.4168,0.4178,0.4023,0.3966,0.4016,0.3901,0.4536,0.4538,0.4539,0,0.2547,0.2562,0.2572,0.2608,0.2644,0.27,0.2775,0.2857,0.2977,0.3197,0.3314,0.3583,0.3779,0.4137,0.4279,0.452,0.4324,0.4446,0.4239,0.4032,0.4004,0.3856,0.3742,0.4157,0.4155,0.4154,0.4153,0,0.2667,0.2648,0.269,0.2681,0.2741,0.2771,0.2869,0.2916,0.307,0.3204,0.3403,0.3559,0.3918,0.4065,0.4359,0.4445,0.4192,0.442,0.4263,0.3769,0.3556,0.3458,0.3938,0.4139,0.414,0.4141,0.4142,0.4143,0.279,0.2802,0.2797,0.2801,0.2842,0.2833,0.2833,0.2961,0.3046,0.3219,0.3404,0.3598,0.3812,0.4179,0.4241,0.4161,0.4178,0.3996,0.3978,0.3873,0.3633,0.4094,0.4287,0.4289,0.4291,0.4292,0.4294,0,0.2899,0.2875,0.2924,0.2864,0.288,0.2859,0.2906,0.2901,0.2965,0.318,0.3329,0.354,0.3668,0.3789,0.3846,0.3726,0.3545,0.3586,0.3287,0.322,0.3689,0.353,0.3494,0.3494,0.3494,0.3494,0.3494,0.3494,0.2951,0.2956,0.2917,0.2884,0.2856,0.2776,0.276,0.2772,0.2853,0.2957,0.3071,0.3239,0.3423,0.3522,0.3393,0.3298,0.3007,0.2926,0.2918,0.3162,0.3194,0.3225,0.3054,0.2919,0.2918,0.2273,0.2268,0.2264]},{"header":{"parameterUnit":"m.s-1","parameterCategory":2,"la1":30.2991,"la2":30.254,"lo1":-89.0895,"lo2":-89.0444,"dy":0.0017,"dx":0.0017,"nx":28,"ny":28,"refTime":"2023-10-17T09:00:00:Z","depth":"0","parameterNumber":3,"parameterNumberName":"V-component_of_CURRENTS"},"data":[0,0,0,0,0,0,0,0,0,0,0,0,0,0,0,0,0,0,0,0,0,0,0,0,0,0,0,0,0,0,0,0,0,0,0,0,0,0,0,0,0,0,0,0,0,0,0,0,0,0,0,0,0,0,0,0,0,0,-0.0448,-0.0449,0,-0.0533,-0.0534,-0.0535,-0.0596,-0.0597,-0.0597,-0.0598,-0.0641,-0.0642,-0.0643,0,0,0,0,0,0,0,0,0,0,0,0,0,-0.0372,-0.0373,-0.0448,-0.0449,-0.045,-0.0532,-0.0534,-0.0535,-0.0596,-0.0597,-0.0597,-0.0598,-0.0641,-0.0642,-0.0643,0,0,0,0,0,0,0,0,0,0,0,0,0,-0.0426,-0.0373,-0.0447,-0.049,-0.0495,-0.0532,-0.0534,-0.0535,-0.0596,-0.0597,-0.0597,-0.0598,-0.0641,-0.0642,-0.0643,-0.0634,0,0,-0.0646,-0.0646,0,0,0,0,0,0,0,0,-0.0422,-0.0428,-0.0483,-0.0487,-0.0493,-0.0555,-0.0523,-0.0566,-0.0596,-0.0558,-0.0598,-0.0598,-0.0608,-0.0612,-0.0627,-0.0636,-0.0638,-0.0646,-0.0647,-0.0647,-0.0647,0,0,0,0,0,0,0,-0.0419,-0.0425,-0.0481,-0.0484,-0.049,-0.0517,-0.0525,-0.0532,-0.0576,-0.0561,-0.0566,-0.0575,-0.061,-0.0625,-0.0628,-0.0638,-0.0646,-0.0647,-0.0648,-0.0648,-0.0643,-0.0643,0,0,0,0,0,0,-0.0406,-0.0421,-0.0479,-0.0484,-0.0459,-0.0517,-0.0527,-0.0534,-0.0578,-0.0585,-0.0574,-0.0577,-0.0623,-0.0627,-0.063,-0.0609,-0.0647,-0.0648,-0.0649,-0.0644,-0.0643,-0.0642,0,0,0,0,0,0,-0.0404,-0.041,-0.0475,-0.0455,-0.0465,-0.0518,-0.0526,-0.0535,-0.055,-0.0588,-0.0595,-0.0578,-0.0624,-0.0628,-0.0635,-0.0611,-0.0649,-0.065,-0.0645,-0.0644,-0.0643,-0.0575,0,0,0,0,0,0,-0.0401,-0.0408,-0.041,-0.0454,-0.0466,-0.0483,-0.0525,-0.0536,-0.0554,-0.0559,-0.0594,-0.0599,-0.0625,-0.0633,-0.0636,-0.0613,-0.065,-0.0646,-0.0644,-0.0643,-0.0578,-0.0571,-0.0566,0,0,0,0,0,-0.0398,-0.0385,-0.0409,-0.0416,-0.0465,-0.0482,-0.049,-0.0531,-0.0553,-0.0549,-0.058,-0.0598,-0.0626,-0.0633,-0.0637,-0.0614,-0.0647,-0.0645,-0.0643,-0.0581,-0.0573,-0.0566,0,0,0,0,0,0,-0.0345,-0.0391,-0.0419,-0.042,-0.0446,-0.0492,-0.0491,-0.0522,-0.0545,-0.0545,-0.059,-0.0597,-0.0596,-0.0613,-0.062,-0.0609,-0.0638,-0.0637,-0.0589,-0.0582,-0.0576,-0.0541,-0.0651,0,0,0,0,0,-0.0336,-0.0342,-0.0388,-0.0387,-0.0396,-0.0444,-0.0457,-0.0481,-0.0508,-0.052,-0.0552,-0.0576,-0.0591,-0.0593,-0.0611,-0.0599,-0.0591,-0.0587,-0.0581,-0.0576,-0.055,-0.0531,-0.052,-0.0637,-0.0637,-0.0637,0,0,-0.0315,-0.0341,-0.0345,-0.0377,-0.04,-0.04,-0.0453,-0.0456,-0.0452,-0.0517,-0.0519,-0.0557,-0.0586,-0.0582,-0.0581,-0.0591,-0.0536,-0.0574,-0.0569,-0.0545,-0.0528,-0.0517,-0.0506,-0.0636,-0.0636,-0.0636,0,0,-0.0263,-0.0296,-0.0282,-0.03,-0.0327,-0.0356,-0.0353,-0.0395,-0.0409,-0.0419,-0.0465,-0.0484,-0.0513,-0.0527,-0.0537,-0.0503,-0.0511,-0.0514,-0.0447,-0.043,-0.0419,-0.041,-0.0372,-0.036,-0.0505,-0.0505,-0.0505,0,-0.0237,-0.0229,-0.0277,-0.0266,-0.0268,-0.033,-0.0305,-0.0328,-0.0368,-0.0361,-0.0405,-0.0436,-0.048,-0.0453,-0.0462,-0.0486,-0.0473,-0.0473,-0.042,-0.0411,-0.0402,-0.0366,-0.0353,-0.0501,-0.0502,-0.0502,-0.0502,0,-0.0179,-0.0173,-0.0159,-0.0172,-0.0179,-0.0164,-0.0202,-0.0206,-0.024,-0.0265,-0.0257,-0.0319,-0.0323,-0.0358,-0.0409,-0.0369,-0.0377,-0.0419,-0.0433,-0.0386,-0.0351,-0.0339,-0.0496,-0.0498,-0.0499,-0.0499,0,0,-0.0114,-0.0119,-0.0112,-0.0092,-0.0125,-0.0112,-0.0102,-0.0098,-0.0056,-0.0121,-0.0056,-0.0144,-0.0172,-0.0185,-0.0242,-0.0255,-0.0215,-0.0314,-0.0315,-0.0266,-0.0153,-0.0183,-0.0174,-0.0251,-0.0248,-0.0247,-0.0147,0,-0.0052,0.0003,-0.0024,0.0034,0.0062,0.0019,0.0047,0.0043,0.003,0.0076,0.0016,0.0049,-0.0103,-0.0079,-0.0124,-0.018,-0.0182,-0.0236,-0.0214,-0.0212,-0.0237,-0.0161,-0.0214,-0.0133,-0.0136,-0.0134,-0.0132,0,0.0014,0.0046,0.0118,0.0162,0.0174,0.0203,0.0259,0.0277,0.0304,0.0306,0.0306,0.0271,0.0258,0.0132,0.0059,0.0033,-0.0049,-0.0114,-0.0112,-0.0151,-0.022,-0.0184,-0.0112,-0.033,-0.0115,-0.0116,-0.0117,0,0.0102,0.0148,0.0218,0.0227,0.0262,0.0309,0.0334,0.0359,0.0427,0.0486,0.0566,0.0505,0.0537,0.0412,0.0243,0.017,0.018,0.0073,-0.0023,-0.0025,-0.0069,-0.0079,-0.0195,0.0046,0.0045,0.0045,0.0045,0,0.0177,0.0236,0.0277,0.032,0.0435,0.0423,0.0558,0.0569,0.0665,0.0793,0.0715,0.0819,0.0603,0.0568,0.0373,0.0234,0.029,0.0026,0.0008,-0.0047,-0.0056,-0.0249,-0.0354,0.0049,0.0048,0.0047,0.0047,0,0.0267,0.0277,0.0379,0.0453,0.048,0.0577,0.0706,0.0824,0.0877,0.1062,0.111,0.1092,0.1022,0.0817,0.0645,0.0436,0.0177,0.0228,0.0188,0.016,-0.0187,-0.0285,-0.0367,-0.0434,0.014,0.014,0.014,0,0.0312,0.0376,0.0494,0.0574,0.0618,0.0749,0.0861,0.0931,0.1069,0.1231,0.1357,0.135,0.1353,0.1104,0.0741,0.046,0.0224,0.0222,0.0043,-0.0177,-0.03,-0.0388,-0.0446,0.0023,0.0022,0.0021,0.002,0,0.0422,0.0475,0.0568,0.0714,0.0846,0.0989,0.1149,0.128,0.1401,0.1544,0.1693,0.1714,0.1488,0.1166,0.078,0.0535,0.006,0.0195,-0.0023,-0.0377,-0.0487,-0.057,-0.0059,0.0013,0.0014,0.0014,0.0015,0.0015,0.0516,0.0597,0.0707,0.0843,0.1004,0.1171,0.1288,0.1469,0.165,0.184,0.1895,0.1941,0.1512,0.0952,0.0636,-0.002,0.0011,-0.0267,-0.0351,-0.0409,-0.0531,-0.0024,0.0006,0.0006,0.0007,0.0007,0.0008,0,0.0568,0.0645,0.0809,0.0954,0.1129,0.119,0.1433,0.1545,0.1725,0.1937,0.2038,0.1849,0.1315,0.0754,-0.0084,-0.0501,-0.0664,-0.0731,-0.0899,-0.092,-0.0463,-0.0533,-0.0632,-0.0632,-0.0632,-0.0631,-0.0631,-0.0631,0.0589,0.0706,0.0765,0.0985,0.1116,0.1309,0.143,0.1603,0.1763,0.1927,0.1962,0.1985,0.1533,0.0155,-0.0844,-0.1062,-0.1314,-0.1364,-0.1443,-0.1202,-0.1168,-0.1135,-0.1229,-0.1472,-0.1473,-0.1899,-0.1903,-0.1907]}],[{"header":{"parameterUnit":"m.s-1","parameterCategory":2,"la1":30.2991,"la2":30.254,"lo1":-89.0895,"lo2":-89.0444,"dy":0.0017,"dx":0.0017,"nx":28,"ny":28,"refTime":"2023-10-17T09:00:00:Z","depth":"2","parameterNumber":2,"parameterNumberName":"U-component_of_CURRENTS"},"data":[0,0,0,0,0,0,0,0,0,0,0,0,0,0,0,0,0,0,0,0,0,0,0,0,0,0,0,0,0,0,0,0,0,0,0,0,0,0,0,0,0,0,0,0,0,0,0,0,0,0,0,0,0,0,0,0,0,0,0.2334,0.2334,0,0.2385,0.2385,0.2386,0.2409,0.2409,0.241,0.241,0.2445,0.2446,0.2447,0,0,0,0,0,0,0,0,0,0,0,0,0,0.2256,0.2257,0.2334,0.2334,0.2335,0.2385,0.2385,0.2386,0.2409,0.2409,0.241,0.241,0.2445,0.2446,0.2447,0,0,0,0,0,0,0,0,0,0,0,0,0,0.2294,0.2257,0.2333,0.2355,0.2358,0.2385,0.2385,0.2386,0.2409,0.2409,0.241,0.241,0.2445,0.2446,0.2447,0.2447,0,0,0.245,0.2451,0,0,0,0,0,0,0,0,0.2291,0.2296,0.2351,0.2354,0.2357,0.2394,0.2371,0.2407,0.2409,0.2387,0.241,0.241,0.2428,0.2431,0.2436,0.2449,0.245,0.245,0.2451,0.2451,0.2452,0,0,0,0,0,0,0,0.2289,0.2294,0.2351,0.2352,0.2356,0.2363,0.2368,0.2378,0.2402,0.2389,0.2391,0.2401,0.2429,0.2434,0.2437,0.2451,0.245,0.2451,0.2452,0.2452,0.2493,0.2494,0,0,0,0,0,0,0.2288,0.2292,0.2349,0.2353,0.2328,0.2364,0.237,0.2379,0.2403,0.2408,0.2401,0.2402,0.2432,0.2435,0.2438,0.2483,0.2451,0.2452,0.2453,0.2493,0.2493,0.2494,0,0,0,0,0,0,0.2286,0.2293,0.2347,0.2326,0.2333,0.2365,0.2375,0.238,0.2406,0.2413,0.2417,0.2425,0.2433,0.2436,0.2459,0.2483,0.2453,0.2454,0.2492,0.2493,0.2494,0.2544,0,0,0,0,0,0,0.2284,0.2292,0.23,0.2326,0.2335,0.2373,0.2375,0.2381,0.2412,0.2415,0.2434,0.2437,0.2433,0.2457,0.246,0.2484,0.2455,0.2492,0.2493,0.2493,0.2542,0.2547,0.255,0,0,0,0,0,0.2281,0.2283,0.23,0.2308,0.2345,0.2374,0.238,0.2401,0.2413,0.2425,0.2438,0.2437,0.2464,0.2459,0.2462,0.2486,0.2491,0.2492,0.2493,0.254,0.2546,0.255,0,0,0,0,0,0,0.2246,0.2287,0.2306,0.232,0.2354,0.238,0.2393,0.2414,0.2434,0.244,0.2446,0.2449,0.2479,0.2471,0.2465,0.2498,0.2477,0.2478,0.2511,0.2516,0.252,0.2535,0.2456,0,0,0,0,0,0.2246,0.2272,0.2305,0.2325,0.2337,0.2372,0.2389,0.2409,0.2431,0.2442,0.2454,0.2465,0.2482,0.249,0.2499,0.2518,0.255,0.2533,0.2537,0.2541,0.2553,0.2631,0.2645,0.2497,0.2497,0.2497,0,0,0.224,0.227,0.2283,0.2323,0.2347,0.2369,0.2382,0.2415,0.2443,0.2441,0.2475,0.2486,0.2491,0.2514,0.2526,0.2512,0.2598,0.2542,0.2545,0.2556,0.2634,0.2649,0.2662,0.2498,0.2498,0.2498,0,0,0.2237,0.2266,0.2281,0.2314,0.2361,0.238,0.2396,0.2431,0.2454,0.2488,0.2496,0.2521,0.2539,0.255,0.2558,0.2588,0.2622,0.2592,0.2625,0.27,0.2714,0.2726,0.2787,0.2805,0.2589,0.2589,0.2589,0,0.223,0.2256,0.229,0.2317,0.2347,0.2387,0.2409,0.2438,0.248,0.2512,0.2502,0.2565,0.2556,0.2609,0.2609,0.2601,0.2652,0.2608,0.2709,0.2722,0.2734,0.2794,0.2812,0.2592,0.2591,0.2591,0.2591,0,0.2239,0.2267,0.228,0.2331,0.2362,0.2394,0.2437,0.2468,0.25,0.2543,0.261,0.2613,0.2658,0.265,0.2634,0.2714,0.2726,0.2713,0.2704,0.2753,0.2811,0.283,0.2595,0.2594,0.2594,0.2593,0,0,0.2204,0.2272,0.2276,0.231,0.2378,0.2404,0.2449,0.251,0.2566,0.2608,0.2694,0.27,0.2738,0.2747,0.2749,0.2789,0.2894,0.2787,0.279,0.286,0.3076,0.2936,0.2943,0.2919,0.2922,0.2925,0.3084,0,0.2203,0.2242,0.2283,0.2335,0.2358,0.2421,0.2467,0.2536,0.2598,0.2688,0.2736,0.2819,0.277,0.2814,0.2849,0.2904,0.2947,0.2852,0.3006,0.301,0.2892,0.296,0.2738,0.2848,0.3102,0.3105,0.3108,0,0.2197,0.2225,0.2268,0.235,0.2368,0.2412,0.2511,0.2566,0.2697,0.2751,0.285,0.2922,0.3017,0.2961,0.3089,0.3046,0.3061,0.3079,0.3086,0.2952,0.2905,0.2838,0.2873,0.3139,0.3136,0.3134,0.3132,0,0.2161,0.2219,0.2256,0.2288,0.2379,0.2422,0.2477,0.2592,0.2672,0.2829,0.2923,0.3045,0.3131,0.3197,0.3223,0.3196,0.335,0.3321,0.3207,0.3199,0.3033,0.3001,0.3399,0.3399,0.3399,0.3398,0.3398,0,0.2161,0.2199,0.2246,0.228,0.2345,0.2414,0.2513,0.2588,0.2732,0.2869,0.2977,0.3095,0.3197,0.3298,0.3303,0.3314,0.3425,0.3234,0.3237,0.3039,0.3008,0.3269,0.3252,0.3404,0.3403,0.3402,0.3401,0,0.2187,0.2193,0.2261,0.2329,0.2344,0.2416,0.2539,0.2643,0.2748,0.2936,0.3013,0.3183,0.3295,0.3355,0.3456,0.3402,0.3433,0.3389,0.3135,0.3101,0.322,0.3204,0.3335,0.3331,0.3328,0.3326,0.3324,0,0.2241,0.228,0.2309,0.237,0.2425,0.2502,0.2583,0.2654,0.2779,0.2983,0.3109,0.3249,0.3296,0.3368,0.333,0.3325,0.3372,0.3102,0.2975,0.3228,0.3218,0.3206,0.3194,0.2796,0.279,0.2785,0.2781,0,0.2426,0.2423,0.247,0.2474,0.2552,0.2617,0.2729,0.2787,0.2917,0.3006,0.3117,0.3143,0.3202,0.3067,0.3043,0.3013,0.3088,0.2994,0.338,0.2812,0.2723,0.2712,0.2718,0.2736,0.274,0.2744,0.2746,0.2748,0.2609,0.2615,0.2596,0.2607,0.269,0.2708,0.2698,0.2809,0.2846,0.2885,0.2966,0.2873,0.2886,0.2698,0.2637,0.2625,0.2803,0.27,0.2716,0.2737,0.261,0.2517,0.247,0.2472,0.2475,0.2477,0.2479,0,0.2696,0.2647,0.2733,0.266,0.2695,0.2707,0.2777,0.2697,0.2649,0.27,0.2608,0.2315,0.2227,0.228,0.2186,0.2176,0.2166,0.2105,0.2083,0.213,0.2171,0.2015,0.1717,0.1715,0.1712,0.171,0,0,0.2732,0.2671,0.2603,0.2591,0.2605,0.2525,0.2505,0.2409,0.2377,0.2156,0.206,0.2062,0.2203,0.1914,0.1883,0.1796,0.1948,0.1736,0.2352,0.2374,0.2411,0.2523,0.2335,0,0,0,0,0]},{"header":{"parameterUnit":"m.s-1","parameterCategory":2,"la1":30.2991,"la2":30.254,"lo1":-89.0895,"lo2":-89.0444,"dy":0.0017,"dx":0.0017,"nx":28,"ny":28,"refTime":"2023-10-17T09:00:00:Z","depth":"2","parameterNumber":3,"parameterNumberName":"V-component_of_CURRENTS"},"data":[0,0,0,0,0,0,0,0,0,0,0,0,0,0,0,0,0,0,0,0,0,0,0,0,0,0,0,0,0,0,0,0,0,0,0,0,0,0,0,0,0,0,0,0,0,0,0,0,0,0,0,0,0,0,0,0,0,0,0.0052,0.0051,0,-0.0035,-0.0036,-0.0037,-0.0108,-0.0108,-0.0108,-0.0109,-0.0209,-0.0211,-0.0214,0,0,0,0,0,0,0,0,0,0,0,0,0,0.0087,0.0086,0.0052,0.0051,0.0051,-0.0035,-0.0036,-0.0038,-0.0108,-0.0108,-0.0108,-0.0109,-0.0208,-0.0211,-0.0214,0,0,0,0,0,0,0,0,0,0,0,0,0,0.004,0.0086,0.0052,0.0008,0.0003,-0.0034,-0.0036,-0.0038,-0.0107,-0.0108,-0.0109,-0.0109,-0.0207,-0.0211,-0.0214,-0.0223,0,0,-0.0225,-0.0226,0,0,0,0,0,0,0,0,0.0043,0.0038,0.0015,0.0011,0.0006,-0.0058,-0.0061,-0.0099,-0.0107,-0.0069,-0.0109,-0.0109,-0.0157,-0.0165,-0.0184,-0.0228,-0.0232,-0.0225,-0.0227,-0.0229,-0.0229,0,0,0,0,0,0,0,0.0046,0.0041,0.0014,0.0015,0.0009,-0.0032,-0.0039,-0.0069,-0.0111,-0.0072,-0.0077,-0.0081,-0.016,-0.0181,-0.0187,-0.0234,-0.0225,-0.0228,-0.023,-0.0231,-0.0294,-0.0293,0,0,0,0,0,0,0.0068,0.0045,0.0017,0.0012,0.0027,-0.0031,-0.0039,-0.004,-0.0111,-0.0121,-0.008,-0.0084,-0.0175,-0.0183,-0.0191,-0.0205,-0.0228,-0.0232,-0.0234,-0.0294,-0.0294,-0.0293,0,0,0,0,0,0,0.0069,0.0067,0.0021,0.0029,0.002,-0.003,-0.0031,-0.0041,-0.0071,-0.0116,-0.0128,-0.01,-0.0176,-0.0186,-0.0217,-0.021,-0.0233,-0.0236,-0.0295,-0.0294,-0.0294,-0.0234,0,0,0,0,0,0,0.0071,0.0068,0.0067,0.0031,0.0021,0.0004,-0.003,-0.0042,-0.007,-0.0076,-0.0136,-0.0146,-0.0177,-0.0211,-0.022,-0.0215,-0.0239,-0.0295,-0.0294,-0.0294,-0.0237,-0.0232,-0.0228,0,0,0,0,0,0.0072,0.0087,0.0068,0.0064,0.0025,0.0005,-0.0004,-0.0045,-0.007,-0.0077,-0.0117,-0.0144,-0.0213,-0.0214,-0.0224,-0.022,-0.0296,-0.0295,-0.0294,-0.0239,-0.0233,-0.0228,0,0,0,0,0,0,0.0103,0.008,0.0059,0.0065,0.0037,-0.0006,-0.0015,-0.0045,-0.0085,-0.0092,-0.0143,-0.0155,-0.0182,-0.0206,-0.0206,-0.0235,-0.0257,-0.0258,-0.0212,-0.0207,-0.0202,-0.0177,-0.0242,0,0,0,0,0,0.0111,0.011,0.0081,0.0081,0.0071,0.0024,0.0007,-0.0018,-0.0052,-0.0072,-0.0113,-0.0152,-0.0184,-0.02,-0.0233,-0.0247,-0.0268,-0.025,-0.0245,-0.0241,-0.0227,-0.0252,-0.0248,-0.029,-0.029,-0.029,0,0,0.0124,0.0109,0.0108,0.0086,0.0058,0.0057,0.0011,-0.0005,-0.001,-0.0075,-0.0099,-0.0143,-0.0187,-0.0205,-0.0218,-0.0225,-0.0241,-0.024,-0.0236,-0.0225,-0.0251,-0.0247,-0.0243,-0.029,-0.029,-0.029,0,0,0.0156,0.0134,0.0146,0.0127,0.0098,0.0077,0.0075,0.0033,0.0009,-0.0017,-0.0064,-0.0101,-0.015,-0.0177,-0.0197,-0.0186,-0.0221,-0.0197,-0.0148,-0.0172,-0.0169,-0.0166,-0.0188,-0.0187,-0.0188,-0.0188,-0.0188,0,0.0167,0.0179,0.0145,0.015,0.0142,0.0092,0.0105,0.0077,0.0029,0.0019,-0.0014,-0.0084,-0.0134,-0.0146,-0.0149,-0.0175,-0.0191,-0.0166,-0.0165,-0.0163,-0.0161,-0.0184,-0.0185,-0.0185,-0.0185,-0.0185,-0.0186,0,0.0208,0.0212,0.0217,0.0209,0.0198,0.0199,0.0167,0.0154,0.0117,0.0085,0.0054,-0.0013,-0.0045,-0.0076,-0.0114,-0.012,-0.0137,-0.0162,-0.0177,-0.0153,-0.0179,-0.0181,-0.0181,-0.0182,-0.0182,-0.0183,0,0,0.025,0.0248,0.025,0.0258,0.0229,0.0233,0.0231,0.022,0.0234,0.0167,0.0182,0.0092,0.0057,0.0032,-0.0019,-0.0053,-0.0073,-0.0096,-0.0099,-0.0112,-0.012,-0.0184,-0.0193,-0.0096,-0.0095,-0.0095,-0.0144,0,0.0289,0.0327,0.0309,0.0341,0.0358,0.0318,0.033,0.0312,0.0284,0.0288,0.0212,0.0205,0.0101,0.0102,0.0045,-0.0036,-0.0073,-0.0057,-0.0145,-0.0148,-0.0204,-0.0195,-0.0158,-0.0203,-0.0145,-0.0146,-0.0146,0,0.0332,0.0356,0.0402,0.0421,0.0426,0.0444,0.0464,0.0467,0.0452,0.0433,0.0399,0.0351,0.0296,0.0216,0.0076,0.0094,-0.0005,-0.0082,-0.0086,-0.0165,-0.0215,-0.0218,-0.0208,-0.0149,-0.0148,-0.0148,-0.0148,0,0.0386,0.0417,0.0462,0.0464,0.0483,0.0507,0.0523,0.0517,0.0554,0.0548,0.0587,0.0485,0.0469,0.0329,0.0144,0.0124,-0.0005,-0.0049,-0.0201,-0.0207,-0.0202,-0.0208,-0.0138,-0.0138,-0.0137,-0.0137,-0.0137,0,0.0426,0.0459,0.0502,0.0525,0.06,0.0585,0.0664,0.066,0.0706,0.0774,0.0684,0.0705,0.0496,0.0392,0.0209,-0.0004,0.0041,-0.0189,-0.0223,-0.0182,-0.0186,-0.0161,-0.0163,-0.0139,-0.0139,-0.0138,-0.0138,0,0.0462,0.048,0.0546,0.0602,0.0625,0.0686,0.0778,0.0847,0.0869,0.0968,0.0989,0.0887,0.0703,0.0488,0.0251,0.0089,-0.0105,-0.019,-0.0133,-0.0162,-0.0305,-0.0303,-0.0355,-0.0358,-0.036,-0.0362,-0.0364,0,0.0474,0.0517,0.0617,0.0693,0.0724,0.0816,0.0892,0.0925,0.102,0.1066,0.1136,0.0992,0.0863,0.0487,0.0172,-0.014,-0.0175,-0.0276,-0.0328,-0.0298,-0.0327,-0.0322,-0.0317,-0.0291,-0.0292,-0.0293,-0.0294,0,0.0525,0.0572,0.0647,0.0784,0.0882,0.0994,0.1113,0.1201,0.1259,0.1308,0.1291,0.1183,0.082,0.0459,0.0062,-0.0137,-0.0229,-0.0304,-0.0264,-0.0256,-0.0247,-0.0272,-0.0268,-0.03,-0.0299,-0.0299,-0.0298,-0.0298,0.058,0.0648,0.0758,0.0895,0.1011,0.1149,0.1257,0.1362,0.1447,0.1504,0.136,0.1198,0.0854,0.0278,-0.0036,-0.0326,-0.0341,-0.0422,-0.0416,-0.041,-0.0408,-0.0405,-0.0486,-0.0487,-0.0487,-0.0487,-0.0488,0,0.0642,0.0728,0.0866,0.1021,0.1169,0.1211,0.1395,0.1485,0.1568,0.153,0.1432,0.1029,0.0665,0.0312,-0.0129,-0.0415,-0.0402,-0.0492,-0.0404,-0.0397,-0.0391,-0.0384,-0.0458,-0.0459,-0.0459,-0.046,0,0,0.0677,0.0816,0.0889,0.1125,0.1252,0.1432,0.1544,0.1626,0.1648,0.1499,0.138,0.1169,0.0758,0.0437,0.0042,-0.0191,-0.0218,-0.0236,-0.0232,-0.0074,-0.0063,-0.033,-0.0311,0,0,0,0,0]}],[{"header":{"parameterUnit":"m.s-1","parameterCategory":2,"la1":30.2991,"la2":30.254,"lo1":-89.0895,"lo2":-89.0444,"dy":0.0017,"dx":0.0017,"nx":28,"ny":28,"refTime":"2023-10-17T09:00:00:Z","depth":"4","parameterNumber":2,"parameterNumberName":"U-component_of_CURRENTS"},"data":[0,0,0,0,0,0,0,0,0,0,0,0,0,0,0,0,0,0,0,0,0,0,0,0,0,0,0,0,0,0,0,0,0,0,0,0,0,0,0,0,0,0,0,0,0,0,0,0,0,0,0,0,0,0,0,0,0,0,0.11,0.1101,0,0.1211,0.1213,0.1214,0.1319,0.132,0.1321,0.1322,0.141,0.1411,0.1412,0,0,0,0,0,0,0,0,0,0,0,0,0,0.0992,0.0993,0.11,0.1101,0.1103,0.1211,0.1213,0.1214,0.1318,0.132,0.1321,0.1322,0.1409,0.1411,0.1412,0,0,0,0,0,0,0,0,0,0,0,0,0,0.1066,0.0994,0.11,0.1166,0.1173,0.1211,0.1213,0.1215,0.1318,0.132,0.1322,0.1323,0.1409,0.1411,0.1413,0.139,0,0,0.1418,0.1419,0,0,0,0,0,0,0,0,0.1062,0.107,0.1155,0.1162,0.117,0.1251,0.1207,0.1272,0.1318,0.1265,0.1322,0.1324,0.1352,0.1359,0.1379,0.1394,0.1398,0.1419,0.142,0.1421,0.1421,0,0,0,0,0,0,0,0.1056,0.1066,0.1146,0.1156,0.1165,0.1195,0.1208,0.122,0.1298,0.127,0.1277,0.1286,0.1357,0.1377,0.1381,0.1399,0.1419,0.142,0.1421,0.1422,0.1547,0.1549,0,0,0,0,0,0,0.1037,0.1061,0.1142,0.1149,0.1117,0.1195,0.121,0.1225,0.1299,0.1312,0.1285,0.1291,0.1373,0.1379,0.1385,0.1479,0.1421,0.1422,0.1423,0.1545,0.1547,0.155,0,0,0,0,0,0,0.1034,0.1043,0.1138,0.1106,0.112,0.1195,0.1212,0.1226,0.1283,0.131,0.1323,0.1331,0.1374,0.1382,0.1431,0.1479,0.1423,0.1425,0.1542,0.1546,0.1549,0.1592,0,0,0,0,0,0,0.1031,0.1042,0.1064,0.1105,0.1121,0.1185,0.121,0.1227,0.1283,0.1293,0.1353,0.1361,0.1376,0.1428,0.1433,0.1481,0.1426,0.1539,0.1544,0.1548,0.1588,0.1597,0.1604,0,0,0,0,0,0.1026,0.1049,0.1065,0.1076,0.1144,0.1186,0.1198,0.1258,0.1283,0.1315,0.1356,0.1361,0.1459,0.1431,0.1436,0.1485,0.1537,0.1543,0.1547,0.1585,0.1595,0.1604,0,0,0,0,0,0,0.1017,0.1062,0.1081,0.1118,0.1158,0.1204,0.1247,0.1271,0.1329,0.1349,0.1373,0.1384,0.1452,0.1458,0.1427,0.1537,0.1505,0.1511,0.1532,0.1542,0.1549,0.1544,0.1428,0,0,0,0,0,0.102,0.1049,0.1092,0.1122,0.1152,0.1201,0.1233,0.1265,0.131,0.1341,0.1381,0.1428,0.1469,0.1496,0.1531,0.1574,0.1571,0.1616,0.1624,0.1631,0.1633,0.1662,0.1672,0.1566,0.1566,0.1566,0,0,0.1023,0.1051,0.107,0.1122,0.1168,0.1212,0.1228,0.1284,0.1325,0.1336,0.1422,0.1454,0.1487,0.1551,0.1582,0.1566,0.1661,0.1637,0.1642,0.1641,0.1668,0.1678,0.1687,0.1569,0.1569,0.1568,0,0,0.1036,0.1076,0.111,0.1145,0.1206,0.1238,0.1258,0.1322,0.1369,0.1427,0.146,0.1515,0.1577,0.1616,0.1639,0.1706,0.1702,0.1733,0.1768,0.1797,0.1805,0.1812,0.1821,0.1829,0.1737,0.1737,0.1737,0,0.1043,0.1086,0.1126,0.1166,0.1203,0.1253,0.1297,0.1345,0.1414,0.1453,0.1466,0.1581,0.1608,0.1682,0.1717,0.1724,0.1732,0.1725,0.1805,0.1812,0.1818,0.1826,0.1834,0.174,0.1739,0.1739,0.1739,0,0.1073,0.112,0.1148,0.1215,0.1257,0.1305,0.1365,0.1425,0.148,0.152,0.1615,0.1654,0.1723,0.1749,0.1754,0.183,0.1817,0.1808,0.1773,0.1831,0.1836,0.1843,0.1744,0.1743,0.1742,0.1741,0,0,0.1058,0.1153,0.1166,0.1208,0.1289,0.1326,0.1406,0.1488,0.155,0.1619,0.1692,0.1773,0.1801,0.1829,0.1852,0.1879,0.1932,0.1869,0.1869,0.1864,0.1988,0.1863,0.1859,0.1938,0.194,0.1941,0.1972,0,0.1079,0.1152,0.1197,0.1278,0.1327,0.1395,0.1465,0.1539,0.161,0.1691,0.1746,0.1826,0.183,0.1875,0.1904,0.1929,0.1955,0.1924,0.1945,0.1945,0.1815,0.1864,0.1947,0.1977,0.1979,0.198,0.1981,0,0.1094,0.1143,0.1221,0.132,0.1353,0.1407,0.1529,0.1597,0.1707,0.1763,0.1841,0.1884,0.1957,0.1941,0.2009,0.1992,0.1999,0.2003,0.2005,0.1875,0.1833,0.1909,0.1993,0.1992,0.1991,0.1991,0.199,0,0.1055,0.116,0.1226,0.1257,0.1374,0.1434,0.1511,0.1624,0.1688,0.1815,0.186,0.1952,0.2006,0.2032,0.2046,0.2044,0.2086,0.2081,0.1972,0.1963,0.2045,0.2037,0.212,0.212,0.212,0.212,0.212,0,0.1048,0.1104,0.122,0.1251,0.1342,0.143,0.1535,0.1624,0.1733,0.1799,0.1897,0.1944,0.2034,0.2063,0.2064,0.2029,0.2105,0.1981,0.1965,0.2064,0.2058,0.205,0.2041,0.2121,0.2121,0.2121,0.212,0,0.0999,0.1077,0.1155,0.1281,0.1324,0.1395,0.1535,0.1598,0.1717,0.1799,0.184,0.196,0.2004,0.2042,0.2089,0.2043,0.2025,0.1991,0.2085,0.2074,0.1882,0.1877,0.1888,0.1884,0.188,0.1877,0.1875,0,0.0979,0.1007,0.1151,0.1192,0.1257,0.1367,0.1432,0.1579,0.1635,0.1785,0.1803,0.1898,0.1955,0.1906,0.1974,0.196,0.194,0.193,0.1917,0.1877,0.1861,0.186,0.1859,0.1869,0.1868,0.1867,0.1867,0,0.0895,0.0958,0.1007,0.1109,0.1189,0.1276,0.1379,0.1413,0.1569,0.1687,0.1725,0.1755,0.1797,0.1831,0.1826,0.1817,0.1938,0.1894,0.1901,0.1889,0.1854,0.1842,0.1845,0.1854,0.1856,0.1857,0.1858,0,0.0795,0.0827,0.0887,0.0986,0.1073,0.1131,0.1228,0.1294,0.1371,0.1547,0.1561,0.1653,0.1772,0.1757,0.175,0.1731,0.1723,0.1688,0.1706,0.172,0.1652,0.1583,0.1488,0,0,0,0,0,0.0668,0.0687,0.0752,0.0836,0.0931,0.0997,0.1145,0.1246,0.1413,0.1396,0.1472,0.1501,0.1528,0.1592,0.1537,0.168,0.172,0.1613,0.1686,0.1787,0.1801,0.1737,0,0,0,0,0,0,0.0549,0.0596,0.0681,0.0676,0.0725,0.081,0.0914,0.1048,0.1063,0.1239,0.1259,0.1398,0.1438,0.1504,0.149,0.151,0.153,0.1689,0.1686,0.178,0.1792,0.1803,0.1742,0,0,0,0,0]},{"header":{"parameterUnit":"m.s-1","parameterCategory":2,"la1":30.2991,"la2":30.254,"lo1":-89.0895,"lo2":-89.0444,"dy":0.0017,"dx":0.0017,"nx":28,"ny":28,"refTime":"2023-10-17T09:00:00:Z","depth":"4","parameterNumber":3,"parameterNumberName":"V-component_of_CURRENTS"},"data":[0,0,0,0,0,0,0,0,0,0,0,0,0,0,0,0,0,0,0,0,0,0,0,0,0,0,0,0,0,0,0,0,0,0,0,0,0,0,0,0,0,0,0,0,0,0,0,0,0,0,0,0,0,0,0,0,0,0,0.0314,0.0314,0,0.0255,0.0254,0.0253,0.021,0.021,0.021,0.021,0.0146,0.0145,0.0143,0,0,0,0,0,0,0,0,0,0,0,0,0,0.0343,0.0342,0.0314,0.0314,0.0313,0.0255,0.0254,0.0253,0.021,0.021,0.021,0.021,0.0147,0.0145,0.0143,0,0,0,0,0,0,0,0,0,0,0,0,0,0.0309,0.0342,0.0315,0.0287,0.0284,0.0255,0.0254,0.0252,0.021,0.021,0.021,0.021,0.0147,0.0145,0.0143,0.0131,0,0,0.0135,0.0134,0,0,0,0,0,0,0,0,0.0311,0.0308,0.0292,0.0289,0.0286,0.0242,0.024,0.0212,0.021,0.0236,0.021,0.021,0.018,0.0175,0.016,0.0128,0.0125,0.0135,0.0134,0.0133,0.0132,0,0,0,0,0,0,0,0.0313,0.031,0.0288,0.0291,0.0288,0.0261,0.0256,0.0234,0.0207,0.0234,0.0231,0.0229,0.0178,0.0162,0.0158,0.0124,0.0135,0.0133,0.0132,0.0131,0.0052,0.0052,0,0,0,0,0,0,0.0329,0.0312,0.029,0.0287,0.0301,0.0261,0.0256,0.0254,0.0207,0.0201,0.0229,0.0227,0.0167,0.0161,0.0156,0.0132,0.0133,0.013,0.0129,0.0053,0.0052,0.0051,0,0,0,0,0,0,0.033,0.0327,0.0292,0.03,0.0294,0.0261,0.026,0.0253,0.0238,0.0204,0.0197,0.0221,0.0166,0.0159,0.0136,0.013,0.0129,0.0127,0.0054,0.0053,0.0052,0.0089,0,0,0,0,0,0,0.0331,0.0328,0.0333,0.0301,0.0294,0.0276,0.026,0.0252,0.0238,0.0235,0.0196,0.0189,0.0166,0.014,0.0133,0.0126,0.0125,0.0054,0.0053,0.0052,0.0089,0.0089,0.009,0,0,0,0,0,0.0332,0.0337,0.0334,0.0332,0.0302,0.0277,0.027,0.0245,0.0238,0.0231,0.0205,0.0191,0.0127,0.0137,0.013,0.0122,0.0055,0.0053,0.0052,0.0088,0.0089,0.009,0,0,0,0,0,0,0.0347,0.0333,0.0329,0.0329,0.0307,0.0271,0.0264,0.0249,0.0222,0.0223,0.0188,0.018,0.0154,0.0132,0.0145,0.0094,0.0086,0.0083,0.0116,0.0117,0.0118,0.012,0.0123,0,0,0,0,0,0.0357,0.0363,0.0336,0.0339,0.0328,0.0298,0.0286,0.0272,0.0245,0.0233,0.0203,0.0172,0.0141,0.0127,0.0097,0.0076,0.0036,0.0062,0.0063,0.0064,0.0059,-0.0006,-0.0012,0.0047,0.0047,0.0047,0,0,0.0365,0.036,0.0363,0.0344,0.0325,0.0312,0.0289,0.0276,0.0267,0.0231,0.0208,0.0176,0.0136,0.0108,0.0094,0.0091,0.0026,0.0062,0.0064,0.0058,-0.0008,-0.0014,-0.0019,0.0046,0.0046,0.0046,0,0,0.038,0.0377,0.0382,0.0367,0.0349,0.0329,0.0328,0.0293,0.0277,0.0256,0.0222,0.0186,0.0147,0.0108,0.0087,0.0073,0.0033,0.0065,0.0073,0.0009,0.0004,-0.0001,-0.0057,-0.0067,0.0066,0.0066,0.0066,0,0.0391,0.0393,0.0378,0.0373,0.0365,0.0339,0.0334,0.0314,0.0277,0.0259,0.0255,0.0171,0.0143,0.0093,0.0089,0.0075,0.0035,0.0077,0.0011,0.0005,-0.0001,-0.0057,-0.0069,0.0068,0.0068,0.0068,0.0067,0,0.0399,0.0403,0.0402,0.0393,0.0382,0.0375,0.0348,0.0333,0.0316,0.0286,0.0236,0.0189,0.0136,0.012,0.0105,0.0046,0.003,0.0021,0.0013,-0.0004,-0.0063,-0.0076,0.007,0.007,0.0069,0.0069,0,0,0.0409,0.041,0.041,0.0411,0.0394,0.0383,0.0372,0.0341,0.0324,0.0283,0.0242,0.0189,0.0155,0.0127,0.0091,0.0038,-0.0031,0.0019,0.0015,-0.0029,-0.0171,-0.0132,-0.0143,-0.005,-0.0052,-0.0054,-0.0193,0,0.0416,0.0427,0.0421,0.0423,0.0419,0.04,0.0391,0.0364,0.0331,0.0283,0.0223,0.0173,0.016,0.0132,0.0078,-0.0014,-0.0065,0.0007,-0.0155,-0.016,-0.0117,-0.0157,-0.0061,-0.0203,-0.0207,-0.0209,-0.021,0,0.0411,0.0425,0.0437,0.0439,0.0434,0.0435,0.0409,0.0397,0.0333,0.0304,0.0243,0.0187,0.0098,0.0095,-0.0063,-0.0016,-0.0085,-0.015,-0.0157,-0.0144,-0.0146,-0.0186,-0.0235,-0.0233,-0.0231,-0.0229,-0.0228,0,0.0411,0.0426,0.0444,0.0444,0.0444,0.0446,0.0443,0.0402,0.0381,0.031,0.027,0.0169,0.0104,-0.0002,-0.0119,-0.0101,-0.0294,-0.029,-0.0321,-0.032,-0.0327,-0.032,-0.0395,-0.0395,-0.0394,-0.0394,-0.0394,0,0.0404,0.0409,0.0452,0.0453,0.0466,0.0467,0.0458,0.0435,0.0394,0.036,0.0282,0.0224,0.0077,-0.0044,-0.014,-0.0274,-0.0314,-0.0333,-0.0358,-0.0308,-0.0297,-0.0337,-0.0328,-0.0399,-0.0398,-0.0397,-0.0396,0,0.037,0.0403,0.0417,0.0449,0.0462,0.0466,0.0472,0.046,0.0428,0.0376,0.0352,0.0234,0.009,-0.0058,-0.0245,-0.0298,-0.0431,-0.0461,-0.0403,-0.042,-0.0411,-0.0399,-0.0525,-0.0525,-0.0525,-0.0525,-0.0525,0,0.0345,0.0361,0.041,0.0425,0.0438,0.0459,0.0473,0.0471,0.046,0.0388,0.0356,0.0217,0.0131,-0.011,-0.0253,-0.0449,-0.0452,-0.0519,-0.0457,-0.0415,-0.0427,-0.0415,-0.0403,-0.0525,-0.0525,-0.0525,-0.0525,0,0.03,0.033,0.0347,0.0405,0.0433,0.045,0.0474,0.0474,0.0472,0.0428,0.0363,0.0246,0.0084,-0.0088,-0.0242,-0.0374,-0.0481,-0.0519,-0.0519,-0.0461,-0.0416,-0.0425,-0.0414,-0.0524,-0.0524,-0.0524,-0.0524,0,0.0276,0.0282,0.0344,0.0382,0.042,0.0458,0.0461,0.0474,0.0474,0.0421,0.0399,0.024,0.0143,-0.005,-0.0195,-0.0323,-0.034,-0.0356,-0.0365,-0.0367,-0.0263,-0.018,-0.025,0,0,0,0,0,0.0272,0.0302,0.0324,0.0388,0.042,0.0455,0.0478,0.0483,0.0488,0.0456,0.0439,0.0305,0.0106,0.0003,-0.0117,-0.0201,-0.0375,-0.0345,-0.0401,-0.0523,-0.0523,-0.0423,0,0,0,0,0,0,0.0284,0.0316,0.0331,0.0399,0.0436,0.0487,0.0507,0.0499,0.0487,0.0464,0.0354,0.0298,0.0089,0.0178,-0.0112,-0.0156,-0.0199,-0.045,-0.0451,-0.0523,-0.0523,-0.0523,-0.0421,0,0,0,0,0]}]]